Time,TemperatureF,DewpointF,PressureIn,WindDirection,WindDirectionDegrees,WindSpeedMPH,WindSpeedGustMPH,Humidity,HourlyPrecipIn,Conditions,Clouds,dailyrainin,SoftwareType,DateUTC
2013-04-07 00:00:00,46.4,32.4,30.22,SSE,160,6.0,9.0,58,0.00,,,0.00,meteohub,2013-04-07 04:00:00,
2013-04-07 00:01:00,46.2,32.2,30.22,SE,145,2.0,9.0,58,0.00,,,0.00,meteohub,2013-04-07 04:01:00,
2013-04-07 00:02:00,46.2,32.7,30.22,SSE,150,2.0,9.0,59,0.00,,,0.00,meteohub,2013-04-07 04:02:00,
2013-04-07 00:07:00,46.0,32.5,30.22,South,181,5.0,8.0,59,0.00,,,0.00,meteohub,2013-04-07 04:07:00,
2013-04-07 00:12:00,46.0,32.9,30.22,South,190,2.0,11.0,60,0.00,,,0.00,meteohub,2013-04-07 04:12:00,
2013-04-07 00:17:00,46.0,32.9,30.22,SSE,160,6.0,11.0,60,0.00,,,0.00,meteohub,2013-04-07 04:17:00,
2013-04-07 00:22:00,45.9,33.3,30.22,South,188,8.0,10.0,61,0.00,,,0.00,meteohub,2013-04-07 04:22:00,
2013-04-07 00:27:00,45.7,33.4,30.22,SE,138,3.0,12.0,62,0.00,,,0.00,meteohub,2013-04-07 04:27:00,
2013-04-07 00:32:00,45.7,33.4,30.22,SE,139,11.0,12.0,62,0.00,,,0.00,meteohub,2013-04-07 04:32:00,
2013-04-07 00:37:00,45.5,33.6,30.22,ESE,120,2.0,12.0,63,0.00,,,0.00,meteohub,2013-04-07 04:37:00,
2013-04-07 00:42:00,45.7,33.8,30.22,SSE,163,7.0,12.0,63,0.00,,,0.00,meteohub,2013-04-07 04:42:00,
2013-04-07 00:47:00,45.5,33.6,30.22,ESE,117,6.0,12.0,63,0.00,,,0.00,meteohub,2013-04-07 04:47:00,
2013-04-07 00:52:00,45.3,33.8,30.22,SE,138,1.0,10.0,64,0.00,,,0.00,meteohub,2013-04-07 04:52:00,
2013-04-07 00:57:00,45.3,33.8,30.22,SSW,210,2.0,10.0,64,0.00,,,0.00,meteohub,2013-04-07 04:57:00,
2013-04-07 01:02:00,45.1,33.3,30.22,SSE,159,4.0,10.0,63,0.00,,,0.00,meteohub,2013-04-07 05:02:00,
2013-04-07 01:08:00,45.1,33.3,30.22,SE,145,5.0,12.0,63,0.00,,,0.00,meteohub,2013-04-07 05:08:00,
2013-04-07 01:13:00,45.0,33.4,30.22,SSE,167,2.0,12.0,64,0.00,,,0.00,meteohub,2013-04-07 05:13:00,
2013-04-07 01:18:00,45.1,33.3,30.22,ESE,118,3.0,12.0,63,0.00,,,0.00,meteohub,2013-04-07 05:18:00,
2013-04-07 01:23:00,45.0,33.1,30.22,SW,233,4.0,10.0,63,0.00,,,0.00,meteohub,2013-04-07 05:23:00,
2013-04-07 01:28:00,45.1,33.3,30.21,South,188,4.0,9.0,63,0.00,,,0.00,meteohub,2013-04-07 05:28:00,
2013-04-07 01:34:00,45.1,33.3,30.21,SSE,162,3.0,9.0,63,0.00,,,0.00,meteohub,2013-04-07 05:34:00,
2013-04-07 01:39:00,45.0,32.7,30.21,SE,132,2.0,10.0,62,0.00,,,0.00,meteohub,2013-04-07 05:39:00,
2013-04-07 01:45:00,45.1,32.5,30.21,SSE,164,6.0,10.0,61,0.00,,,0.00,meteohub,2013-04-07 05:45:00,
2013-04-07 01:50:00,45.0,32.4,30.21,South,173,0.0,10.0,61,0.00,,,0.00,meteohub,2013-04-07 05:50:00,
2013-04-07 01:55:00,45.1,32.0,30.21,SE,129,3.0,9.0,60,0.00,,,0.00,meteohub,2013-04-07 05:55:00,
2013-04-07 02:00:00,45.1,32.0,30.21,SSW,200,2.0,9.0,60,0.00,,,0.00,meteohub,2013-04-07 06:00:00,
2013-04-07 02:05:00,45.3,31.5,30.20,South,181,4.0,9.0,58,0.00,,,0.00,meteohub,2013-04-07 06:05:00,
2013-04-07 02:10:00,45.1,31.3,30.20,South,184,2.0,6.0,58,0.00,,,0.00,meteohub,2013-04-07 06:10:00,
2013-04-07 02:15:00,45.0,30.6,30.20,SW,214,3.0,8.0,57,0.00,,,0.00,meteohub,2013-04-07 06:15:00,
2013-04-07 02:20:00,45.0,31.1,30.20,SSE,159,5.0,8.0,58,0.00,,,0.00,meteohub,2013-04-07 06:20:00,
2013-04-07 02:25:00,45.0,31.1,30.20,SE,126,4.0,8.0,58,0.00,,,0.00,meteohub,2013-04-07 06:25:00,
2013-04-07 02:30:00,45.0,30.6,30.20,SSW,195,6.0,8.0,57,0.00,,,0.00,meteohub,2013-04-07 06:30:00,
2013-04-07 02:35:00,45.0,30.6,30.19,South,176,4.0,7.0,57,0.00,,,0.00,meteohub,2013-04-07 06:35:00,
2013-04-07 02:40:00,45.0,30.6,30.19,SE,134,2.0,6.0,57,0.00,,,0.00,meteohub,2013-04-07 06:40:00,
2013-04-07 02:45:00,45.1,30.4,30.19,SSE,153,7.0,7.0,56,0.00,,,0.00,meteohub,2013-04-07 06:45:00,
2013-04-07 02:50:00,44.8,30.0,30.19,SSE,159,7.0,9.0,56,0.00,,,0.00,meteohub,2013-04-07 06:50:00,
2013-04-07 02:55:00,44.8,30.0,30.19,South,169,3.0,9.0,56,0.00,,,0.00,meteohub,2013-04-07 06:55:00,
2013-04-07 03:00:00,44.8,30.0,30.19,SSE,159,4.0,9.0,56,0.00,,,0.00,meteohub,2013-04-07 07:00:00,
2013-04-07 03:05:00,44.8,29.7,30.19,SSE,155,5.0,7.0,55,0.00,,,0.00,meteohub,2013-04-07 07:05:00,
2013-04-07 03:10:00,44.8,30.0,30.19,SE,142,1.0,6.0,56,0.00,,,0.00,meteohub,2013-04-07 07:10:00,
2013-04-07 03:15:00,44.8,29.7,30.19,South,177,2.0,6.0,55,0.00,,,0.00,meteohub,2013-04-07 07:15:00,
2013-04-07 03:20:00,44.4,29.7,30.19,SSW,212,5.0,7.0,56,0.00,,,0.00,meteohub,2013-04-07 07:20:00,
2013-04-07 03:25:00,44.6,29.8,30.19,SSE,166,5.0,7.0,56,0.00,,,0.00,meteohub,2013-04-07 07:25:00,
2013-04-07 03:30:00,44.4,30.2,30.19,SSW,197,4.0,9.0,57,0.00,,,0.00,meteohub,2013-04-07 07:30:00,
2013-04-07 03:35:00,44.4,30.2,30.19,SSW,195,6.0,9.0,57,0.00,,,0.00,meteohub,2013-04-07 07:35:00,
2013-04-07 03:40:00,44.2,30.4,30.19,South,188,3.0,9.0,58,0.00,,,0.00,meteohub,2013-04-07 07:40:00,
2013-04-07 03:45:00,44.1,30.7,30.19,SE,138,4.0,9.0,59,0.00,,,0.00,meteohub,2013-04-07 07:45:00,
2013-04-07 03:52:00,44.1,31.1,30.19,SE,139,3.0,9.0,60,0.00,,,0.00,meteohub,2013-04-07 07:52:00,
2013-04-07 03:57:00,44.2,31.3,30.18,SE,141,1.0,9.0,60,0.00,,,0.00,meteohub,2013-04-07 07:57:00,
2013-04-07 04:02:00,44.2,31.3,30.19,SE,142,2.0,9.0,60,0.00,,,0.00,meteohub,2013-04-07 08:02:00,
2013-04-07 04:07:00,44.2,31.6,30.19,South,183,2.0,6.0,61,0.00,,,0.00,meteohub,2013-04-07 08:07:00,
2013-04-07 04:12:00,44.1,31.8,30.19,SSE,158,3.0,7.0,62,0.00,,,0.00,meteohub,2013-04-07 08:12:00,
2013-04-07 04:17:00,44.1,32.4,30.19,SE,145,1.0,7.0,63,0.00,,,0.00,meteohub,2013-04-07 08:17:00,
2013-04-07 04:22:00,44.2,32.4,30.19,SSE,155,1.0,7.0,63,0.00,,,0.00,meteohub,2013-04-07 08:22:00,
2013-04-07 04:27:00,44.1,32.7,30.19,SSE,154,1.0,6.0,64,0.00,,,0.00,meteohub,2013-04-07 08:27:00,
2013-04-07 04:32:00,44.4,32.5,30.19,South,172,3.0,6.0,63,0.00,,,0.00,meteohub,2013-04-07 08:32:00,
2013-04-07 04:37:00,44.2,32.9,30.19,SSE,160,3.0,6.0,64,0.00,,,0.00,meteohub,2013-04-07 08:37:00,
2013-04-07 04:42:00,43.9,32.9,30.19,SSE,162,3.0,6.0,65,0.00,,,0.00,meteohub,2013-04-07 08:42:00,
2013-04-07 04:47:00,44.1,33.1,30.19,SSW,212,1.0,6.0,65,0.00,,,0.00,meteohub,2013-04-07 08:47:00,
2013-04-07 04:54:00,44.1,33.1,30.19,SE,126,2.0,5.0,65,0.00,,,0.00,meteohub,2013-04-07 08:54:00,
2013-04-07 04:59:00,43.9,33.6,30.19,South,172,3.0,6.0,67,0.00,,,0.00,meteohub,2013-04-07 08:59:00,
2013-04-07 05:04:00,43.9,33.6,30.19,SSE,161,2.0,6.0,67,0.00,,,0.00,meteohub,2013-04-07 09:04:00,
2013-04-07 05:12:00,43.7,34.2,30.19,SSW,204,2.0,6.0,69,0.00,,,0.00,meteohub,2013-04-07 09:12:00,
2013-04-07 05:17:00,43.5,34.3,30.19,South,171,3.0,10.0,70,0.00,,,0.00,meteohub,2013-04-07 09:17:00,
2013-04-07 05:22:00,43.9,34.7,30.19,SSE,148,3.0,10.0,70,0.00,,,0.00,meteohub,2013-04-07 09:22:00,
2013-04-07 05:27:00,43.7,34.5,30.19,SE,143,6.0,10.0,70,0.00,,,0.00,meteohub,2013-04-07 09:27:00,
2013-04-07 05:32:00,43.5,34.3,30.19,ESE,105,2.0,8.0,70,0.00,,,0.00,meteohub,2013-04-07 09:32:00,
2013-04-07 05:37:00,43.3,34.5,30.19,SSE,167,4.0,8.0,71,0.00,,,0.00,meteohub,2013-04-07 09:37:00,
2013-04-07 05:42:00,43.2,34.3,30.18,SSW,201,4.0,9.0,71,0.00,,,0.00,meteohub,2013-04-07 09:42:00,
2013-04-07 05:47:00,43.3,34.5,30.18,SSE,168,4.0,9.0,71,0.00,,,0.00,meteohub,2013-04-07 09:47:00,
2013-04-07 05:52:00,43.2,34.3,30.18,SSE,162,3.0,8.0,71,0.00,,,0.00,meteohub,2013-04-07 09:52:00,
2013-04-07 05:59:00,43.0,34.5,30.18,SSW,204,7.0,8.0,72,0.00,,,0.00,meteohub,2013-04-07 09:59:00,
2013-04-07 06:04:00,42.8,34.7,30.19,SSW,213,4.0,9.0,73,0.00,,,0.00,meteohub,2013-04-07 10:04:00,
2013-04-07 06:09:00,43.0,34.9,30.19,SSW,205,4.0,9.0,73,0.00,,,0.00,meteohub,2013-04-07 10:09:00,
2013-04-07 06:14:00,42.8,34.7,30.19,South,187,6.0,9.0,73,0.00,,,0.00,meteohub,2013-04-07 10:14:00,
2013-04-07 06:19:00,42.6,34.9,30.19,South,179,4.0,8.0,74,0.00,,,0.00,meteohub,2013-04-07 10:19:00,
2013-04-07 06:24:00,42.6,34.9,30.20,SSE,148,4.0,8.0,74,0.00,,,0.00,meteohub,2013-04-07 10:24:00,
2013-04-07 06:29:00,42.6,34.5,30.19,SE,126,7.0,8.0,73,0.00,,,0.00,meteohub,2013-04-07 10:29:00,
2013-04-07 06:34:00,42.6,34.5,30.19,SW,219,4.0,8.0,73,0.00,,,0.00,meteohub,2013-04-07 10:34:00,
2013-04-07 06:39:00,42.4,34.7,30.19,SSE,160,2.0,8.0,74,0.00,,,0.00,meteohub,2013-04-07 10:39:00,
2013-04-07 06:44:00,42.3,34.5,30.19,SSE,153,3.0,7.0,74,0.00,,,0.00,meteohub,2013-04-07 10:44:00,
2013-04-07 06:50:00,42.4,35.1,30.19,South,184,1.0,8.0,75,0.00,,,0.00,meteohub,2013-04-07 10:50:00,
2013-04-07 06:55:00,42.4,34.7,30.19,SE,130,1.0,8.0,74,0.00,,,0.00,meteohub,2013-04-07 10:55:00,
2013-04-07 07:00:00,42.4,34.7,30.19,SE,126,2.0,10.0,74,0.00,,,0.00,meteohub,2013-04-07 11:00:00,
2013-04-07 07:05:00,42.4,34.7,30.19,SSE,162,3.0,10.0,74,0.00,,,0.00,meteohub,2013-04-07 11:05:00,
2013-04-07 07:10:00,42.4,34.7,30.19,SSE,147,4.0,10.0,74,0.00,,,0.00,meteohub,2013-04-07 11:10:00,
2013-04-07 07:15:00,42.4,34.7,30.19,SSE,154,1.0,7.0,74,0.00,,,0.00,meteohub,2013-04-07 11:15:00,
2013-04-07 07:20:00,43.0,34.9,30.19,SE,126,7.0,7.0,73,0.00,,,0.00,meteohub,2013-04-07 11:20:00,
2013-04-07 07:25:00,43.0,34.5,30.19,SE,141,1.0,8.0,72,0.00,,,0.00,meteohub,2013-04-07 11:25:00,
2013-04-07 07:30:00,43.0,34.2,30.19,SSW,211,4.0,8.0,71,0.00,,,0.00,meteohub,2013-04-07 11:30:00,
2013-04-07 07:35:00,43.2,34.7,30.19,SE,135,3.0,8.0,72,0.00,,,0.00,meteohub,2013-04-07 11:35:00,
2013-04-07 07:40:00,43.5,34.3,30.19,SW,214,6.0,7.0,70,0.00,,,0.00,meteohub,2013-04-07 11:40:00,
2013-04-07 07:45:00,43.5,34.3,30.19,SSE,165,1.0,8.0,70,0.00,,,0.00,meteohub,2013-04-07 11:45:00,
2013-04-07 07:50:00,44.1,34.2,30.19,SE,139,2.0,8.0,68,0.00,,,0.00,meteohub,2013-04-07 11:50:00,
2013-04-07 07:55:00,44.1,34.2,30.19,SSW,201,4.0,8.0,68,0.00,,,0.00,meteohub,2013-04-07 11:55:00,
2013-04-07 08:00:00,44.1,34.2,30.19,SSE,163,3.0,11.0,68,0.00,,,0.00,meteohub,2013-04-07 12:00:00,
2013-04-07 08:06:00,44.2,34.3,30.19,SSW,201,1.0,11.0,68,0.00,,,0.00,meteohub,2013-04-07 12:06:00,
2013-04-07 08:11:00,44.4,34.5,30.19,ESE,111,4.0,11.0,68,0.00,,,0.00,meteohub,2013-04-07 12:11:00,
2013-04-07 08:16:00,44.8,34.9,30.19,SSW,208,9.0,11.0,68,0.00,,,0.00,meteohub,2013-04-07 12:16:00,
2013-04-07 08:21:00,45.0,35.1,30.19,SSW,200,7.0,10.0,68,0.00,,,0.00,meteohub,2013-04-07 12:21:00,
2013-04-07 08:27:00,45.5,35.6,30.19,SSE,162,6.0,10.0,68,0.00,,,0.00,meteohub,2013-04-07 12:27:00,
2013-04-07 08:32:00,45.7,35.8,30.18,South,187,3.0,10.0,68,0.00,,,0.00,meteohub,2013-04-07 12:32:00,
2013-04-07 08:37:00,46.0,35.8,30.18,South,180,8.0,10.0,67,0.00,,,0.00,meteohub,2013-04-07 12:37:00,
2013-04-07 08:42:00,46.0,36.1,30.18,South,170,3.0,10.0,68,0.00,,,0.00,meteohub,2013-04-07 12:42:00,
2013-04-07 08:47:00,46.0,36.1,30.18,SSW,205,7.0,14.0,68,0.00,,,0.00,meteohub,2013-04-07 12:47:00,
2013-04-07 08:53:00,46.0,36.1,30.18,South,174,4.0,14.0,68,0.00,,,0.00,meteohub,2013-04-07 12:53:00,
2013-04-07 08:58:00,46.8,36.7,30.17,South,188,5.0,14.0,68,0.00,,,0.00,meteohub,2013-04-07 12:58:00,
2013-04-07 09:03:00,47.3,36.9,30.17,SSE,155,6.0,14.0,67,0.00,,,0.00,meteohub,2013-04-07 13:03:00,
2013-04-07 09:08:00,47.8,37.4,30.17,SW,235,4.0,13.0,67,0.00,,,0.00,meteohub,2013-04-07 13:08:00,
2013-04-07 09:13:00,47.5,36.7,30.17,South,169,4.0,15.0,66,0.00,,,0.00,meteohub,2013-04-07 13:13:00,
2013-04-07 09:18:00,47.8,37.0,30.17,SE,134,3.0,15.0,66,0.00,,,0.00,meteohub,2013-04-07 13:18:00,
2013-04-07 09:23:00,48.7,37.6,30.16,South,177,3.0,15.0,65,0.00,,,0.00,meteohub,2013-04-07 13:23:00,
2013-04-07 09:28:00,49.1,37.4,30.16,SSE,162,9.0,14.0,64,0.00,,,0.00,meteohub,2013-04-07 13:28:00,
2013-04-07 09:33:00,49.1,37.4,30.16,SSE,165,8.0,12.0,64,0.00,,,0.00,meteohub,2013-04-07 13:33:00,
2013-04-07 09:38:00,49.3,37.6,30.16,SSE,166,7.0,12.0,64,0.00,,,0.00,meteohub,2013-04-07 13:38:00,
2013-04-07 09:43:00,49.6,37.6,30.16,SE,134,7.0,12.0,63,0.00,,,0.00,meteohub,2013-04-07 13:43:00,
2013-04-07 09:48:00,49.8,36.9,30.16,South,187,12.0,12.0,61,0.00,,,0.00,meteohub,2013-04-07 13:48:00,
2013-04-07 09:54:00,49.6,37.2,30.15,SSW,210,6.0,16.0,62,0.00,,,0.00,meteohub,2013-04-07 13:54:00,
2013-04-07 09:59:00,50.5,37.2,30.15,SW,226,7.0,17.0,60,0.00,,,0.00,meteohub,2013-04-07 13:59:00,
2013-04-07 10:04:00,50.5,36.7,30.15,South,172,5.0,17.0,59,0.00,,,0.00,meteohub,2013-04-07 14:04:00,
2013-04-07 10:09:00,51.1,35.4,30.15,SSW,197,13.0,15.0,55,0.00,,,0.00,meteohub,2013-04-07 14:09:00,
2013-04-07 10:14:00,51.3,35.6,30.14,SSW,211,10.0,16.0,55,0.00,,,0.00,meteohub,2013-04-07 14:14:00,
2013-04-07 10:19:00,51.8,35.6,30.14,SE,136,11.0,16.0,54,0.00,,,0.00,meteohub,2013-04-07 14:19:00,
2013-04-07 10:24:00,52.0,35.4,30.14,SW,223,8.0,16.0,53,0.00,,,0.00,meteohub,2013-04-07 14:24:00,
2013-04-07 10:29:00,52.7,34.5,30.14,SSW,205,5.0,14.0,50,0.00,,,0.00,meteohub,2013-04-07 14:29:00,
2013-04-07 10:34:00,52.5,34.9,30.14,SSE,149,6.0,14.0,51,0.00,,,0.00,meteohub,2013-04-07 14:34:00,
2013-04-07 10:39:00,52.3,35.2,30.14,SW,235,7.0,15.0,52,0.00,,,0.00,meteohub,2013-04-07 14:39:00,
2013-04-07 10:44:00,52.7,35.1,30.13,SW,221,7.0,15.0,51,0.00,,,0.00,meteohub,2013-04-07 14:44:00,
2013-04-07 10:49:00,53.2,35.1,30.13,SW,221,9.0,15.0,50,0.00,,,0.00,meteohub,2013-04-07 14:49:00,
2013-04-07 10:54:00,53.4,35.2,30.13,SSW,200,7.0,15.0,50,0.00,,,0.00,meteohub,2013-04-07 14:54:00,
2013-04-07 11:00:00,54.0,35.2,30.13,SSE,155,6.0,15.0,49,0.00,,,0.00,meteohub,2013-04-07 15:00:00,
2013-04-07 11:05:00,54.1,36.0,30.12,SSE,160,4.0,16.0,50,0.00,,,0.00,meteohub,2013-04-07 15:05:00,
2013-04-07 11:10:00,54.3,36.1,30.12,South,176,6.0,16.0,50,0.00,,,0.00,meteohub,2013-04-07 15:10:00,
2013-04-07 11:15:00,54.3,35.6,30.12,SSW,193,12.0,19.0,49,0.00,,,0.00,meteohub,2013-04-07 15:15:00,
2013-04-07 11:20:00,54.7,36.0,30.12,SSW,200,8.0,19.0,49,0.00,,,0.00,meteohub,2013-04-07 15:20:00,
2013-04-07 11:24:00,54.9,36.1,30.12,SE,129,8.0,19.0,49,0.00,,,0.00,meteohub,2013-04-07 15:24:00,
2013-04-07 11:27:00,55.0,36.1,30.12,SW,224,8.0,17.0,49,0.00,,,0.00,meteohub,2013-04-07 15:27:00,
2013-04-07 11:32:00,55.6,36.7,30.11,South,179,4.0,16.0,49,0.00,,,0.00,meteohub,2013-04-07 15:32:00,
2013-04-07 11:37:00,56.5,37.0,30.10,SSE,162,7.0,14.0,48,0.00,,,0.00,meteohub,2013-04-07 15:37:00,
2013-04-07 11:44:00,56.8,36.3,30.10,SSE,159,13.0,14.0,46,0.00,,,0.00,meteohub,2013-04-07 15:44:00,
2013-04-07 11:49:00,57.6,36.9,30.10,South,180,5.0,18.0,46,0.00,,,0.00,meteohub,2013-04-07 15:49:00,
2013-04-07 11:55:00,57.7,36.5,30.09,WSW,257,12.0,18.0,45,0.00,,,0.00,meteohub,2013-04-07 15:55:00,
2013-04-07 12:00:00,57.6,36.3,30.10,SW,225,8.0,18.0,45,0.00,,,0.00,meteohub,2013-04-07 16:00:00,
2013-04-07 12:05:00,58.3,36.5,30.09,SSE,149,6.0,14.0,44,0.00,,,0.00,meteohub,2013-04-07 16:05:00,
2013-04-07 12:10:00,58.6,36.9,30.09,South,176,12.0,14.0,44,0.00,,,0.00,meteohub,2013-04-07 16:10:00,
2013-04-07 12:15:00,58.8,36.3,30.08,SE,125,6.0,17.0,43,0.00,,,0.00,meteohub,2013-04-07 16:15:00,
2013-04-07 12:20:00,59.2,36.7,30.08,SSE,166,10.0,17.0,43,0.00,,,0.00,meteohub,2013-04-07 16:20:00,
2013-04-07 12:25:00,59.5,36.5,30.07,SSE,152,14.0,18.0,42,0.00,,,0.00,meteohub,2013-04-07 16:25:00,
2013-04-07 12:31:00,59.7,36.0,30.07,SSE,148,5.0,18.0,41,0.00,,,0.00,meteohub,2013-04-07 16:31:00,
2013-04-07 12:35:00,59.9,36.7,30.07,SSW,210,8.0,18.0,42,0.00,,,0.00,meteohub,2013-04-07 16:35:00,
2013-04-07 12:41:00,60.1,36.3,30.07,South,190,11.0,18.0,41,0.00,,,0.00,meteohub,2013-04-07 16:41:00,
2013-04-07 12:46:00,60.1,36.3,30.06,South,183,12.0,19.0,41,0.00,,,0.00,meteohub,2013-04-07 16:46:00,
2013-04-07 12:51:00,60.3,36.5,30.06,SSE,159,9.0,19.0,41,0.00,,,0.00,meteohub,2013-04-07 16:51:00,
2013-04-07 12:56:00,61.0,36.5,30.06,South,170,11.0,20.0,40,0.00,,,0.00,meteohub,2013-04-07 16:56:00,
2013-04-07 13:01:00,60.8,36.3,30.05,SW,216,10.0,20.0,40,0.00,,,0.00,meteohub,2013-04-07 17:01:00,
2013-04-07 13:06:00,61.2,36.7,30.05,South,186,17.0,18.0,40,0.00,,,0.00,meteohub,2013-04-07 17:06:00,
2013-04-07 13:11:00,62.1,37.4,30.05,SE,144,6.0,19.0,40,0.00,,,0.00,meteohub,2013-04-07 17:11:00,
2013-04-07 13:16:00,62.4,37.2,30.04,SSW,204,7.0,19.0,39,0.00,,,0.00,meteohub,2013-04-07 17:16:00,
2013-04-07 13:21:00,62.8,36.9,30.04,South,183,6.0,20.0,38,0.00,,,0.00,meteohub,2013-04-07 17:21:00,
2013-04-07 13:26:00,63.0,37.0,30.04,SSW,194,8.0,20.0,38,0.00,,,0.00,meteohub,2013-04-07 17:26:00,
2013-04-07 13:31:00,62.4,37.2,30.04,SSW,212,3.0,20.0,39,0.00,,,0.00,meteohub,2013-04-07 17:31:00,
2013-04-07 13:36:00,63.0,37.6,30.03,SSW,195,10.0,21.0,39,0.00,,,0.00,meteohub,2013-04-07 17:36:00,
2013-04-07 13:42:00,63.3,37.9,30.02,SE,138,8.0,21.0,39,0.00,,,0.00,meteohub,2013-04-07 17:42:00,
2013-04-07 13:47:00,63.7,37.6,30.01,SSW,195,4.0,21.0,38,0.00,,,0.00,meteohub,2013-04-07 17:47:00,
2013-04-07 13:52:00,64.6,37.8,30.01,ESE,118,11.0,21.0,37,0.00,,,0.00,meteohub,2013-04-07 17:52:00,
2013-04-07 13:57:00,64.6,37.8,30.01,SSW,200,6.0,18.0,37,0.00,,,0.00,meteohub,2013-04-07 17:57:00,
2013-04-07 14:02:00,64.8,37.9,30.01,SSW,197,7.0,16.0,37,0.00,,,0.00,meteohub,2013-04-07 18:02:00,
2013-04-07 14:07:00,64.9,38.1,30.01,WSW,240,6.0,16.0,37,0.00,,,0.00,meteohub,2013-04-07 18:07:00,
2013-04-07 14:12:00,65.1,38.1,30.01,South,179,7.0,14.0,37,0.00,,,0.00,meteohub,2013-04-07 18:12:00,
2013-04-07 14:17:00,65.1,38.1,30.00,SE,125,5.0,13.0,37,0.00,,,0.00,meteohub,2013-04-07 18:17:00,
2013-04-07 14:22:00,65.7,37.9,30.00,East,93,5.0,13.0,36,0.00,,,0.00,meteohub,2013-04-07 18:22:00,
2013-04-07 14:27:00,66.4,37.9,30.00,SE,146,4.0,15.0,35,0.00,,,0.00,meteohub,2013-04-07 18:27:00,
2013-04-07 14:32:00,66.6,37.4,30.00,SSW,194,6.0,15.0,34,0.00,,,0.00,meteohub,2013-04-07 18:32:00,
2013-04-07 14:37:00,66.7,38.3,30.00,SSW,211,6.0,15.0,35,0.00,,,0.00,meteohub,2013-04-07 18:37:00,
2013-04-07 14:44:00,67.3,37.9,30.00,South,188,10.0,14.0,34,0.00,,,0.00,meteohub,2013-04-07 18:44:00,
2013-04-07 14:49:00,66.7,38.3,29.99,SSW,208,7.0,15.0,35,0.00,,,0.00,meteohub,2013-04-07 18:49:00,
2013-04-07 14:54:00,66.9,37.6,29.99,SSE,156,5.0,18.0,34,0.00,,,0.00,meteohub,2013-04-07 18:54:00,
2013-04-07 14:59:00,67.5,38.1,29.98,SSW,193,16.0,18.0,34,0.00,,,0.00,meteohub,2013-04-07 18:59:00,
2013-04-07 15:05:00,67.6,37.6,29.98,SE,131,14.0,18.0,33,0.00,,,0.00,meteohub,2013-04-07 19:05:00,
2013-04-07 15:10:00,67.5,37.4,29.97,South,180,9.0,16.0,33,0.00,,,0.00,meteohub,2013-04-07 19:10:00,
2013-04-07 15:15:00,67.6,37.6,29.97,South,174,10.0,19.0,33,0.00,,,0.00,meteohub,2013-04-07 19:15:00,
2013-04-07 15:20:00,67.8,37.6,29.96,South,186,7.0,21.0,33,0.00,,,0.00,meteohub,2013-04-07 19:20:00,
2013-04-07 15:25:00,68.0,37.8,29.95,SSE,149,4.0,21.0,33,0.00,,,0.00,meteohub,2013-04-07 19:25:00,
2013-04-07 15:32:00,68.2,37.9,29.95,South,176,8.0,21.0,33,0.00,,,0.00,meteohub,2013-04-07 19:32:00,
2013-04-07 15:37:00,67.8,37.6,29.95,South,181,3.0,19.0,33,0.00,,,0.00,meteohub,2013-04-07 19:37:00,
2013-04-07 15:42:00,68.5,38.3,29.95,ESE,116,6.0,19.0,33,0.00,,,0.00,meteohub,2013-04-07 19:42:00,
2013-04-07 15:47:00,68.7,37.6,29.95,SSW,205,5.0,19.0,32,0.00,,,0.00,meteohub,2013-04-07 19:47:00,
2013-04-07 15:52:00,68.9,37.8,29.94,SSW,212,6.0,19.0,32,0.00,,,0.00,meteohub,2013-04-07 19:52:00,
2013-04-07 15:57:00,69.3,38.1,29.94,South,174,11.0,17.0,32,0.00,,,0.00,meteohub,2013-04-07 19:57:00,
2013-04-07 16:02:00,68.7,37.6,29.94,South,185,8.0,19.0,32,0.00,,,0.00,meteohub,2013-04-07 20:02:00,
2013-04-07 16:07:00,68.7,38.5,29.94,West,277,5.0,19.0,33,0.00,,,0.00,meteohub,2013-04-07 20:07:00,
2013-04-07 16:12:00,68.5,38.3,29.94,SW,219,10.0,19.0,33,0.00,,,0.00,meteohub,2013-04-07 20:12:00,
2013-04-07 16:17:00,68.9,38.7,29.94,SSE,160,5.0,18.0,33,0.00,,,0.00,meteohub,2013-04-07 20:17:00,
2013-04-07 16:22:00,69.3,38.1,29.94,SW,218,15.0,18.0,32,0.00,,,0.00,meteohub,2013-04-07 20:22:00,
2013-04-07 16:27:00,69.4,38.3,29.94,SSW,211,2.0,17.0,32,0.00,,,0.00,meteohub,2013-04-07 20:27:00,
2013-04-07 16:32:00,69.6,38.5,29.93,SSW,206,12.0,17.0,32,0.00,,,0.00,meteohub,2013-04-07 20:32:00,
2013-04-07 16:37:00,69.6,38.5,29.93,SSW,194,8.0,17.0,32,0.00,,,0.00,meteohub,2013-04-07 20:37:00,
2013-04-07 16:42:00,70.2,38.8,29.93,SW,228,10.0,17.0,32,0.00,,,0.00,meteohub,2013-04-07 20:42:00,
2013-04-07 16:48:00,70.2,38.8,29.93,ESE,103,5.0,17.0,32,0.00,,,0.00,meteohub,2013-04-07 20:48:00,
2013-04-07 16:53:00,70.3,39.0,29.93,SE,146,8.0,15.0,32,0.00,,,0.00,meteohub,2013-04-07 20:53:00,
2013-04-07 16:58:00,70.9,38.7,29.93,SSW,193,7.0,18.0,31,0.00,,,0.00,meteohub,2013-04-07 20:58:00,
2013-04-07 17:04:00,70.9,38.7,29.93,SSE,163,5.0,19.0,31,0.00,,,0.00,meteohub,2013-04-07 21:04:00,
2013-04-07 17:10:00,71.2,39.0,29.94,South,175,11.0,19.0,31,0.00,,,0.00,meteohub,2013-04-07 21:10:00,
2013-04-07 17:15:00,71.2,39.0,29.93,SSW,197,9.0,14.0,31,0.00,,,0.00,meteohub,2013-04-07 21:15:00,
2013-04-07 17:20:00,71.1,38.8,29.93,South,170,7.0,19.0,31,0.00,,,0.00,meteohub,2013-04-07 21:20:00,
2013-04-07 17:25:00,71.1,38.8,29.92,SSW,195,7.0,19.0,31,0.00,,,0.00,meteohub,2013-04-07 21:25:00,
2013-04-07 17:30:00,71.1,38.8,29.92,South,180,17.0,19.0,31,0.00,,,0.00,meteohub,2013-04-07 21:30:00,
2013-04-07 17:35:00,71.1,39.7,29.93,South,175,4.0,19.0,32,0.00,,,0.00,meteohub,2013-04-07 21:35:00,
2013-04-07 17:40:00,71.2,39.0,29.93,SSW,211,7.0,19.0,31,0.00,,,0.00,meteohub,2013-04-07 21:40:00,
2013-04-07 17:45:00,71.2,39.9,29.92,South,180,3.0,19.0,32,0.00,,,0.00,meteohub,2013-04-07 21:45:00,
2013-04-07 17:51:00,71.4,39.2,29.92,SE,145,6.0,16.0,31,0.00,,,0.00,meteohub,2013-04-07 21:51:00,
2013-04-07 17:56:00,71.1,38.8,29.92,SW,218,10.0,17.0,31,0.00,,,0.00,meteohub,2013-04-07 21:56:00,
2013-04-07 18:01:00,71.2,39.9,29.92,SSW,197,2.0,17.0,32,0.00,,,0.00,meteohub,2013-04-07 22:01:00,
2013-04-07 18:06:00,71.2,39.9,29.92,South,190,10.0,17.0,32,0.00,,,0.00,meteohub,2013-04-07 22:06:00,
2013-04-07 18:11:00,71.2,39.9,29.92,SSW,202,6.0,16.0,32,0.00,,,0.00,meteohub,2013-04-07 22:11:00,
2013-04-07 18:16:00,71.2,39.9,29.92,SSW,211,8.0,13.0,32,0.00,,,0.00,meteohub,2013-04-07 22:16:00,
2013-04-07 18:22:00,71.1,39.7,29.92,SSE,162,6.0,17.0,32,0.00,,,0.00,meteohub,2013-04-07 22:22:00,
2013-04-07 18:27:00,70.9,39.6,29.92,WSW,242,7.0,17.0,32,0.00,,,0.00,meteohub,2013-04-07 22:27:00,
2013-04-07 18:32:00,70.7,40.1,29.92,SSE,167,4.0,17.0,33,0.00,,,0.00,meteohub,2013-04-07 22:32:00,
2013-04-07 18:37:00,70.3,39.9,29.92,South,185,13.0,14.0,33,0.00,,,0.00,meteohub,2013-04-07 22:37:00,
2013-04-07 18:42:00,70.3,39.9,29.91,SSE,161,3.0,15.0,33,0.00,,,0.00,meteohub,2013-04-07 22:42:00,
2013-04-07 18:47:00,70.3,39.9,29.92,SSW,207,6.0,16.0,33,0.00,,,0.00,meteohub,2013-04-07 22:47:00,
2013-04-07 18:52:00,70.3,39.9,29.92,SSW,212,5.0,16.0,33,0.00,,,0.00,meteohub,2013-04-07 22:52:00,
2013-04-07 18:57:00,70.3,39.9,29.91,SSE,150,3.0,16.0,33,0.00,,,0.00,meteohub,2013-04-07 22:57:00,
2013-04-07 19:02:00,70.0,40.3,29.91,SSE,165,14.0,14.0,34,0.00,,,0.00,meteohub,2013-04-07 23:02:00,
2013-04-07 19:07:00,69.6,39.9,29.91,SW,226,5.0,17.0,34,0.00,,,0.00,meteohub,2013-04-07 23:07:00,
2013-04-07 19:13:00,69.6,39.9,29.91,SSW,204,9.0,17.0,34,0.00,,,0.00,meteohub,2013-04-07 23:13:00,
2013-04-07 19:18:00,69.4,40.6,29.92,SSE,160,7.0,17.0,35,0.00,,,0.00,meteohub,2013-04-07 23:18:00,
2013-04-07 19:23:00,69.3,40.5,29.91,SSW,205,3.0,14.0,35,0.00,,,0.00,meteohub,2013-04-07 23:23:00,
2013-04-07 19:28:00,69.1,40.3,29.91,SW,221,8.0,14.0,35,0.00,,,0.00,meteohub,2013-04-07 23:28:00,
2013-04-07 19:33:00,68.9,40.1,29.91,SW,216,10.0,13.0,35,0.00,,,0.00,meteohub,2013-04-07 23:33:00,
2013-04-07 19:38:00,68.7,40.6,29.91,SW,221,6.0,10.0,36,0.00,,,0.00,meteohub,2013-04-07 23:38:00,
2013-04-07 19:43:00,68.5,40.5,29.91,South,176,2.0,11.0,36,0.00,,,0.00,meteohub,2013-04-07 23:43:00,
2013-04-07 19:48:00,68.4,40.3,29.91,South,181,3.0,11.0,36,0.00,,,0.00,meteohub,2013-04-07 23:48:00,
2013-04-07 19:53:00,68.2,41.0,29.91,SSE,150,1.0,10.0,37,0.00,,,0.00,meteohub,2013-04-07 23:53:00,
2013-04-07 19:58:00,68.0,40.8,29.91,SSE,162,3.0,10.0,37,0.00,,,0.00,meteohub,2013-04-07 23:58:00,
2013-04-07 20:03:00,67.8,41.4,29.91,SSW,207,1.0,10.0,38,0.00,,,0.00,meteohub,2013-04-08 00:03:00,
2013-04-07 20:08:00,67.6,41.2,29.91,SSE,165,4.0,9.0,38,0.00,,,0.00,meteohub,2013-04-08 00:08:00,
2013-04-07 20:13:00,67.6,41.2,29.92,South,183,8.0,10.0,38,0.00,,,0.00,meteohub,2013-04-08 00:13:00,
2013-04-07 20:18:00,67.6,41.2,29.92,SW,222,4.0,10.0,38,0.00,,,0.00,meteohub,2013-04-08 00:18:00,
2013-04-07 20:23:00,67.5,41.0,29.92,South,170,2.0,12.0,38,0.00,,,0.00,meteohub,2013-04-08 00:23:00,
2013-04-07 20:28:00,67.5,41.0,29.92,South,174,5.0,12.0,38,0.00,,,0.00,meteohub,2013-04-08 00:28:00,
2013-04-07 20:33:00,67.5,41.0,29.93,SE,139,7.0,12.0,38,0.00,,,0.00,meteohub,2013-04-08 00:33:00,
2013-04-07 20:39:00,67.3,40.8,29.93,SSE,167,3.0,11.0,38,0.00,,,0.00,meteohub,2013-04-08 00:39:00,
2013-04-07 20:44:00,67.3,40.8,29.93,South,173,6.0,11.0,38,0.00,,,0.00,meteohub,2013-04-08 00:44:00,
2013-04-07 20:49:00,67.1,40.6,29.93,SSW,200,2.0,11.0,38,0.00,,,0.00,meteohub,2013-04-08 00:49:00,
2013-04-07 20:54:00,66.9,41.2,29.93,SW,221,2.0,8.0,39,0.00,,,0.00,meteohub,2013-04-08 00:54:00,
2013-04-07 20:59:00,66.7,41.0,29.93,SSW,206,5.0,9.0,39,0.00,,,0.00,meteohub,2013-04-08 00:59:00,
2013-04-07 21:04:00,66.6,40.8,29.93,South,191,6.0,9.0,39,0.00,,,0.00,meteohub,2013-04-08 01:04:00,
2013-04-07 21:10:00,66.4,40.6,29.93,SSW,200,2.0,9.0,39,0.00,,,0.00,meteohub,2013-04-08 01:10:00,
2013-04-07 21:15:00,66.4,41.4,29.93,South,180,4.0,9.0,40,0.00,,,0.00,meteohub,2013-04-08 01:15:00,
2013-04-07 21:20:00,66.2,41.2,29.93,SSE,155,1.0,8.0,40,0.00,,,0.00,meteohub,2013-04-08 01:20:00,
2013-04-07 21:25:00,66.0,41.0,29.93,South,190,5.0,8.0,40,0.00,,,0.00,meteohub,2013-04-08 01:25:00,
2013-04-07 21:30:00,66.0,41.0,29.93,South,170,4.0,9.0,40,0.00,,,0.00,meteohub,2013-04-08 01:30:00,
2013-04-07 21:35:00,65.8,40.8,29.93,SE,131,5.0,9.0,40,0.00,,,0.00,meteohub,2013-04-08 01:35:00,
2013-04-07 21:40:00,65.8,40.8,29.94,South,181,7.0,9.0,40,0.00,,,0.00,meteohub,2013-04-08 01:40:00,
2013-04-07 21:47:00,65.7,40.6,29.94,South,172,4.0,11.0,40,0.00,,,0.00,meteohub,2013-04-08 01:47:00,
2013-04-07 21:51:00,65.7,41.4,29.94,SSE,153,4.0,11.0,41,0.00,,,0.00,meteohub,2013-04-08 01:51:00,
2013-04-07 21:57:00,65.5,41.2,29.94,SW,221,7.0,9.0,41,0.00,,,0.00,meteohub,2013-04-08 01:57:00,
2013-04-07 22:02:00,65.5,41.2,29.94,South,186,3.0,9.0,41,0.00,,,0.00,meteohub,2013-04-08 02:02:00,
2013-04-07 22:07:00,65.5,41.2,29.94,SSE,167,4.0,9.0,41,0.00,,,0.00,meteohub,2013-04-08 02:07:00,
2013-04-07 22:12:00,65.3,41.0,29.94,SSE,160,4.0,12.0,41,0.00,,,0.00,meteohub,2013-04-08 02:12:00,
2013-04-07 22:17:00,65.1,41.5,29.94,SSW,203,6.0,12.0,42,0.00,,,0.00,meteohub,2013-04-08 02:17:00,
2013-04-07 22:22:00,65.1,41.5,29.94,SSE,158,5.0,10.0,42,0.00,,,0.00,meteohub,2013-04-08 02:22:00,
2013-04-07 22:27:00,65.1,41.5,29.94,SE,139,2.0,10.0,42,0.00,,,0.00,meteohub,2013-04-08 02:27:00,
2013-04-07 22:32:00,64.8,41.7,29.94,South,169,4.0,8.0,43,0.00,,,0.00,meteohub,2013-04-08 02:32:00,
2013-04-07 22:37:00,64.8,41.7,29.94,SSW,194,6.0,9.0,43,0.00,,,0.00,meteohub,2013-04-08 02:37:00,
2013-04-07 22:42:00,64.8,41.7,29.94,South,185,3.0,9.0,43,0.00,,,0.00,meteohub,2013-04-08 02:42:00,
2013-04-07 22:47:00,64.6,41.5,29.94,SW,216,2.0,10.0,43,0.00,,,0.00,meteohub,2013-04-08 02:47:00,
2013-04-07 22:54:00,64.6,41.5,29.94,South,169,3.0,11.0,43,0.00,,,0.00,meteohub,2013-04-08 02:54:00,
2013-04-07 22:59:00,64.4,42.1,29.94,SSW,195,8.0,11.0,44,0.00,,,0.00,meteohub,2013-04-08 02:59:00,
2013-04-07 23:04:00,64.4,42.1,29.94,South,173,1.0,12.0,44,0.00,,,0.00,meteohub,2013-04-08 03:04:00,
2013-04-07 23:09:00,64.2,41.9,29.94,SSW,198,3.0,12.0,44,0.00,,,0.00,meteohub,2013-04-08 03:09:00,
2013-04-07 23:14:00,64.2,41.9,29.95,South,169,2.0,8.0,44,0.00,,,0.00,meteohub,2013-04-08 03:14:00,
2013-04-07 23:20:00,64.2,42.4,29.94,South,173,3.0,10.0,45,0.00,,,0.00,meteohub,2013-04-08 03:20:00,
2013-04-07 23:27:00,64.0,42.3,29.94,South,185,6.0,10.0,45,0.00,,,0.00,meteohub,2013-04-08 03:27:00,
2013-04-07 23:32:00,63.9,42.1,29.94,WSW,238,3.0,10.0,45,0.00,,,0.00,meteohub,2013-04-08 03:32:00,
2013-04-07 23:37:00,63.7,42.4,29.95,South,173,6.0,10.0,46,0.00,,,0.00,meteohub,2013-04-08 03:37:00,
2013-04-07 23:42:00,63.7,42.4,29.95,SSW,205,5.0,8.0,46,0.00,,,0.00,meteohub,2013-04-08 03:42:00,
2013-04-07 23:49:00,63.7,42.4,29.95,SSW,204,3.0,8.0,46,0.00,,,0.00,meteohub,2013-04-08 03:49:00,
2013-04-07 23:54:00,63.5,43.0,29.95,SSE,156,2.0,8.0,47,0.00,,,0.00,meteohub,2013-04-08 03:54:00,